1483509601.25,50224,9.19,71678.8,-9.83,-10.85,-10.79,0,*50
1483509602.5,50225,9.19,71688.0,-9.83,-10.85,-10.79,0,*51
1483509603.7,50226,9.19,71694.0,-9.81,-10.97,-10.85,0,*50
1483509604.9,50227,9.19,71688.0,-9.81,-10.93,-10.85,0,*55
1483509606.13,50228,9.19,71690.3,-9.83,-10.93,-10.93,0,*5F
1483509607.34,50229,9.19,71686.3,-9.81,-10.97,-10.93,0,*58
1483509608.55,50230,9.19,71676.3,-9.81,-10.97,-10.97,0,*54
1483509609.77,50231,9.19,71680.8,-9.83,-10.85,-10.85,0,*57
1483509611.0,50232,9.19,71688.5,-9.83,-10.93,-10.93,0,*54
1483509612.2,50233,9.19,71690.0,-9.81,-10.85,-10.85,0,*57
1483509613.43,50234,9.19,71684.0,-9.81,-10.93,-10.79,0,*54
1483509614.69,50235,9.19,71674.5,-9.83,-11.07,-10.97,0,*5B
1483509615.92,50236,9.19,71664.0,-9.81,-11.07,-10.93,0,*5E
1483509617.15,50237,9.19,71678.0,-9.83,-10.97,-10.93,0,*55
1483509618.36,50238,9.19,71690.5,-9.81,-10.85,-10.93,0,*5B
1483509619.58,50239,9.19,71692.3,-9.83,-10.93,-10.85,0,*58
1483509620.83,50240,9.19,71696.0,-9.83,-10.85,-10.79,0,*52
1483509622.11,50241,9.19,71704.5,-9.83,-10.71,-10.71,0,*50
1483509623.37,50242,9.19,71714.0,-9.81,-10.71,-10.67,0,*56
1483509624.6,50243,9.19,71712.0,-9.81,-10.85,-10.71,0,*5B
1483509625.85,50244,9.19,71708.8,-9.81,-10.79,-10.71,0,*5F
1483509627.11,50245,9.19,71702.0,-9.81,-10.71,-10.71,0,*56
1483509628.38,50246,9.19,71694.5,-9.83,-10.79,-10.71,0,*5F
1483509629.64,50247,9.19,71686.8,-9.81,-10.79,-10.79,0,*54
1483509630.92,50248,9.19,71690.5,-9.83,-10.71,-10.71,0,*59
1483509632.17,50249,9.19,71684.8,-9.81,-10.71,-10.71,0,*5A
1483509633.43,50250,9.19,71690.5,-9.81,-10.79,-10.71,0,*5A
1483509634.68,50251,9.19,71640.3,-9.81,-10.79,-10.71,0,*5B
1483509635.94,50252,9.19,71670.0,-9.81,-10.71,-10.79,0,*58
1483509637.19,50253,9.19,71684.0,-9.81,-10.71,-10.71,0,*51
1483509638.47,50254,9.19,71664.3,-9.83,-10.79,-10.71,0,*5C
1483509639.76,50255,9.19,71674.5,-9.83,-10.71,-10.67,0,*52
1483509641.03,50256,9.19,71684.8,-9.83,-10.71,-10.71,0,*56
1483509642.31,50257,9.19,71644.8,-9.83,-10.71,-10.71,0,*57
1483509643.58,50258,9.19,71654.3,-9.81,-10.67,-10.63,0,*5E
1483509644.84,50259,9.19,71668.8,-9.81,-10.67,-10.67,0,*5B
1483509646.11,50260,9.19,71674.3,-9.81,-10.71,-10.67,0,*56
1483509647.37,50261,9.19,71686.8,-9.81,-10.71,-10.67,0,*57
1483509648.63,50262,9.19,71676.0,-9.81,-10.79,-10.67,0,*5C
1483509649.89,50263,9.19,71680.8,-9.81,-10.71,-10.67,0,*55
1483509651.14,50264,9.19,71688.0,-9.81,-10.79,-10.71,0,*5D
1483509652.4,50265,9.19,71684.8,-9.81,-10.79,-10.71,0,*5C
1483509653.65,50266,9.19,71694.0,-9.81,-10.71,-10.71,0,*57
1483509654.9,50267,9.19,71690.5,-9.81,-10.79,-10.71,0,*5E
1483509656.16,50268,9.19,71676.8,-9.81,-10.79,-10.71,0,*51
1483509657.41,50269,9.19,71694.8,-9.81,-10.79,-10.79,0,*58
1483509658.64,50270,9.19,71652.8,-9.81,-10.85,-10.71,0,*5B
1483509659.87,50271,9.19,71646.5,-9.79,-10.89,-10.75,0,*55
1483509661.13,50272,9.19,71676.8,-9.79,-10.79,-10.75,0,*59
1483509662.39,50273,9.19,71696.8,-9.79,-10.75,-10.67,0,*57
1483509663.65,50274,9.19,71700.3,-9.79,-10.75,-10.67,0,*50
1483509664.88,50275,9.19,71692.5,-9.79,-10.89,-10.79,0,*5D
1483509666.14,50276,9.19,71682.5,-9.81,-10.79,-10.71,0,*5E
1483509667.39,50277,9.19,71686.8,-9.81,-10.71,-10.71,0,*57
1483509668.66,50278,9.19,71672.5,-9.79,-10.67,-10.63,0,*5B
1483509669.93,50279,9.19,71668.8,-9.79,-10.67,-10.67,0,*5E
1483509671.18,50280,9.19,71668.0,-9.79,-10.75,-10.75,0,*58
1483509672.45,50281,9.19,71674.3,-9.79,-10.75,-10.67,0,*5A
1483509673.71,50282,9.19,71682.3,-9.79,-10.67,-10.75,0,*59
1483509674.94,50283,9.19,71666.3,-9.79,-10.89,-10.79,0,*54
1483509676.15,50284,9.19,71666.5,-9.79,-10.89,-10.89,0,*5C
1483509677.4,50285,9.19,71660.5,-9.79,-10.79,-10.79,0,*5D
1483509678.63,50286,9.19,71660.5,-9.79,-10.89,-10.75,0,*5D
1483509679.87,50287,9.19,71660.8,-9.79,-10.93,-10.79,0,*5B
1483509681.08,50288,9.19,71672.3,-9.79,-10.93,-10.89,0,*5B
1483509682.31,50289,9.19,71672.5,-9.79,-10.89,-10.79,0,*5E
1483509683.54,50290,9.19,71668.0,-9.79,-11.01,-10.79,0,*57
1483509684.75,50291,9.19,71676.8,-9.81,-10.97,-10.93,0,*5B
1483509685.96,50292,9.19,71690.0,-9.81,-10.97,-10.93,0,*58
1483509687.17,50293,9.19,71682.5,-9.81,-10.93,-10.93,0,*5D
1483509688.38,50294,9.19,71690.5,-9.81,-10.93,-10.93,0,*5A
1483509689.61,50295,9.19,71692.5,-9.79,-10.89,-10.79,0,*53
1483509690.81,50296,9.19,71694.5,-9.79,-10.89,-10.89,0,*5F
1483509692.07,50297,9.19,71698.5,-9.79,-10.75,-10.67,0,*5D
1483509693.34,50298,9.19,71694.0,-9.79,-10.75,-10.67,0,*52
1483509694.57,50299,9.19,71698.5,-9.79,-10.89,-10.75,0,*53
1483509695.83,50300,9.19,71700.8,-9.79,-10.79,-10.67,0,*5E
1483509697.09,50301,9.19,71704.0,-9.79,-10.79,-10.67,0,*5F
1483509698.35,50302,9.19,71704.8,-9.79,-10.79,-10.75,0,*5F
1483509699.58,50303,9.19,71706.0,-9.79,-10.89,-10.75,0,*51
1483509700.84,50304,9.19,71706.8,-9.79,-10.79,-10.75,0,*59
1483509702.1,50305,9.19,71708.3,-9.79,-10.79,-10.79,0,*54
1483509703.38,50306,9.19,71706.0,-9.77,-10.75,-10.75,0,*59
1483509704.65,50307,9.19,71704.0,-9.79,-10.67,-10.75,0,*55
1483509705.91,50308,9.19,71704.8,-9.79,-10.67,-10.75,0,*5A
1483509707.17,50309,9.19,71702.3,-9.79,-10.75,-10.75,0,*58
1483509708.43,50310,9.19,71702.5,-9.79,-10.79,-10.79,0,*50
1483509709.63,50311,9.19,71702.8,-9.81,-10.93,-10.85,0,*51
1483509710.89,50312,9.19,71702.5,-9.79,-10.67,-10.75,0,*51
1483509712.12,50313,9.19,71700.5,-9.79,-10.89,-10.79,0,*5C
1483509713.36,50314,9.19,71702.0,-9.79,-10.93,-10.79,0,*50
1483509714.62,50315,9.19,71684.5,-9.77,-10.93,-10.79,0,*5F
1483509715.83,50316,9.19,71682.0,-9.79,-10.89,-10.89,0,*56
1483509717.04,50317,9.19,71690.5,-9.79,-10.93,-10.93,0,*57
1483509718.27,50318,9.19,71692.5,-9.79,-10.89,-10.79,0,*57
1483509719.5,50319,9.19,71700.3,-9.79,-10.79,-10.89,0,*56
1483509720.7,50320,9.19,71700.5,-9.79,-10.93,-10.89,0,*58
1483509721.91,50321,9.19,71704.0,-9.81,-10.85,-10.93,0,*52
1483509723.11,50322,9.19,71704.3,-9.79,-10.89,-10.89,0,*51
1483509724.31,50323,9.19,71704.8,-9.79,-10.89,-10.89,0,*50
1483509725.55,50324,9.19,71710.5,-9.79,-10.93,-10.79,0,*53
1483509726.75,50325,9.19,71714.3,-9.79,-11.15,-11.01,0,*53
1483509727.96,50326,9.19,71700.0,-9.79,-11.01,-11.01,0,*55
1483509729.2,50327,9.19,71692.0,-9.79,-11.29,-11.19,0,*57
1483509730.45,50328,9.19,71696.8,-9.81,-11.33,-11.33,0,*5C
1483509731.7,50329,9.19,71710.8,-9.81,-11.37,-11.37,0,*5D
1483509732.9,50330,9.19,71700.5,-9.81,-11.23,-11.23,0,*55
1483509734.15,50331,9.19,71696.0,-9.81,-11.33,-11.33,0,*54
1483509735.4,50332,9.19,71690.5,-9.83,-11.45,-11.37,0,*50
1483509736.64,50333,9.19,71686.5,-9.81,-11.45,-11.37,0,*53
1483509737.87,50334,9.19,71676.3,-9.81,-11.45,-11.37,0,*54
1483509739.14,50335,9.19,71678.0,-9.83,-11.51,-11.33,0,*56
1483509740.41,50336,9.19,71674.3,-9.83,-11.37,-11.37,0,*51
1483509741.66,50337,9.19,71672.3,-9.81,-11.37,-11.37,0,*52
1483509742.93,50338,9.19,71682.0,-9.83,-11.33,-11.33,0,*5F
1483509744.18,50339,9.19,71674.3,-9.83,-11.23,-11.33,0,*5F
1483509745.43,50340,9.19,71696.5,-9.83,-11.33,-11.23,0,*51
1483509746.66,50341,9.19,71706.3,-9.83,-11.23,-11.23,0,*51
1483509747.87,50342,9.19,71700.3,-9.85,-11.01,-11.01,0,*54
1483509749.08,50343,9.19,71702.0,-9.85,-11.01,-11.01,0,*55
1483509750.29,50344,9.19,71708.3,-9.85,-11.01,-11.01,0,*52
1483509751.5,50345,9.19,71698.0,-9.85,-11.11,-11.11,0,*53
1483509752.71,50346,9.19,71696.0,-9.85,-11.23,-11.01,0,*50
1483509753.91,50347,9.19,71698.3,-9.85,-11.15,-11.15,0,*51
1483509755.12,50348,9.19,71698.0,-9.85,-11.15,-11.01,0,*5B
1483509756.38,50349,9.19,71690.3,-9.85,-11.29,-11.29,0,*5F
1483509757.59,50350,9.19,71696.3,-9.85,-11.15,-11.15,0,*57
1483509758.8,50351,9.19,71692.0,-9.85,-11.01,-11.01,0,*56
1483509760.0,50352,9.19,71700.8,-9.85,-11.15,-11.11,0,*51
1483509761.22,50353,9.19,71706.3,-9.85,-11.01,-10.97,0,*5A
1483509762.43,50354,9.19,71706.3,-9.85,-10.89,-10.97,0,*5C
1483509763.65,50355,9.19,71696.8,-9.85,-10.97,-10.97,0,*52
1483509764.85,50356,9.19,71700.8,-9.85,-11.11,-11.11,0,*51
1483509766.06,50357,9.19,71702.8,-9.85,-11.23,-11.11,0,*51
1483509767.29,50358,9.19,71712.0,-9.87,-11.23,-11.15,0,*58
1483509768.49,50359,9.19,71708.5,-9.85,-11.23,-11.23,0,*5E
1483509769.73,50360,9.19,71706.3,-9.87,-11.23,-11.15,0,*53
1483509770.93,50361,9.19,71718.3,-9.85,-11.15,-11.15,0,*55
1483509772.16,50362,9.19,71716.8,-9.87,-11.15,-11.15,0,*54
1483509773.36,50363,9.25,71710.5,-9.85,-11.15,-11.15,0,*57
1483509774.57,50364,9.19,71710.8,-9.85,-11.15,-11.01,0,*55
1483509775.78,50365,9.19,71696.5,-9.85,-11.23,-11.11,0,*50
1483509776.99,50366,9.19,71696.5,-9.85,-11.23,-11.11,0,*53
1483509778.19,50367,9.19,71694.0,-9.85,-11.15,-11.11,0,*57
1483509779.4,50368,9.19,71690.0,-9.85,-11.01,-11.11,0,*5D
1483509780.61,50369,9.19,71706.0,-9.85,-11.15,-11.11,0,*59
1483509781.81,50370,9.19,71704.5,-9.85,-11.15,-11.11,0,*51
1483509783.04,50371,9.19,71692.3,-9.87,-11.11,-11.11,0,*56
1483509784.24,50372,9.19,71682.5,-9.85,-11.11,-11.15,0,*53
1483509785.47,50373,9.19,71672.3,-9.87,-11.11,-11.11,0,*54
1483509786.68,50374,9.19,71664.5,-9.89,-11.15,-11.15,0,*5D
1483509787.88,50375,9.19,71664.8,-9.85,-11.11,-11.01,0,*51
1483509789.11,50376,9.19,71658.5,-9.87,-11.11,-11.01,0,*50
1483509790.4,50377,9.19,71644.8,-9.87,-11.29,-11.29,0,*50
1483509791.68,50378,9.19,71668.8,-9.87,-11.29,-11.29,0,*5F
1483509792.94,50379,9.19,71694.5,-9.87,-11.29,-11.23,0,*54
1483509794.15,50380,9.19,71700.5,-9.85,-11.15,-11.15,0,*5A
1483509795.38,50381,9.19,71702.3,-9.87,-11.15,-11.11,0,*5D
1483509796.61,50382,9.19,71706.0,-9.87,-11.11,-11.01,0,*5B
1483509797.84,50383,9.19,71696.0,-9.87,-11.11,-11.01,0,*5A
1483509799.04,50384,9.19,71680.3,-9.85,-11.11,-11.01,0,*5F
1483509800.27,50385,9.19,71664.0,-9.87,-11.11,-11.15,0,*59
1483509801.5,50386,9.19,71662.3,-9.87,-11.15,-11.15,0,*5E
1483509802.73,50387,9.19,71654.0,-9.87,-11.23,-11.15,0,*5A
1483509804.02,50388,9.19,71634.8,-9.87,-11.29,-11.29,0,*50
1483509805.27,50389,9.19,71634.8,-9.87,-11.37,-11.41,0,*50
1483509806.56,50390,9.19,71646.0,-9.87,-11.29,-11.29,0,*59
1483509807.81,50391,9.19,71640.5,-9.87,-11.41,-11.51,0,*59
1483509809.07,50392,9.19,71636.5,-9.87,-11.41,-11.29,0,*55
1483509810.33,50393,9.19,71662.8,-9.87,-11.37,-11.23,0,*5F
1483509811.6,50394,9.19,71668.5,-9.91,-11.33,-11.33,0,*5A
1483509812.82,50395,9.19,71652.3,-9.89,-11.45,-11.45,0,*52
1483509814.03,50396,9.19,71666.5,-9.89,-11.41,-11.41,0,*51
1483509815.28,50397,9.19,71650.5,-9.91,-11.41,-11.33,0,*5C
1483509816.52,50398,9.19,71628.8,-9.89,-11.33,-11.19,0,*57
1483509817.79,50399,9.19,71618.3,-9.91,-11.33,-11.33,0,*57
1483509819.05,50400,9.19,71646.5,-9.91,-11.29,-11.19,0,*53
1483509820.26,50401,9.19,71648.8,-9.89,-11.15,-11.15,0,*58
1483509821.49,50402,9.19,71646.0,-9.89,-10.89,-10.79,0,*54
1483509822.75,50403,9.19,71638.5,-9.89,-10.79,-10.79,0,*5A
1483509823.96,50404,9.25,71650.0,-9.89,-10.89,-10.89,0,*5D
1483509825.22,50405,9.19,71662.3,-9.91,-11.01,-11.07,0,*53
1483509826.51,50406,9.19,71656.5,-9.91,-11.07,-11.07,0,*56
1483509827.72,50407,9.25,71658.5,-9.89,-11.01,-11.01,0,*5E
1483509828.94,50408,9.19,71644.3,-9.89,-11.01,-10.93,0,*5B
1483509830.15,50409,9.19,71632.3,-9.89,-10.93,-10.93,0,*50
1483509831.36,50410,9.25,71636.0,-9.89,-10.93,-11.01,0,*52
1483509832.57,50411,9.19,71650.0,-9.89,-11.01,-11.01,0,*59
1483509833.8,50412,9.19,71672.5,-9.89,-11.07,-11.01,0,*5C
1483509835.04,50413,9.19,71676.0,-9.89,-11.07,-11.01,0,*5D
1483509836.28,50414,9.19,71666.5,-9.87,-11.01,-10.97,0,*5C
1483509837.54,50415,9.19,71676.0,-9.89,-11.07,-11.07,0,*5D
1483509838.75,50416,9.19,71680.5,-9.89,-11.15,-11.01,0,*5B
1483509840.01,50417,9.19,71690.5,-9.91,-11.07,-11.01,0,*50
1483509841.25,50418,9.19,71690.0,-9.87,-11.01,-10.97,0,*50
1483509842.51,50419,9.19,71682.5,-9.89,-11.07,-11.07,0,*51
1483509843.75,50420,9.19,71692.3,-9.91,-11.15,-11.01,0,*57
1483509845.01,50421,9.19,71694.5,-9.91,-11.15,-11.07,0,*50
1483509846.24,50422,9.19,71694.0,-9.89,-11.15,-11.07,0,*5A
1483509847.45,50423,9.19,71688.5,-9.89,-11.15,-11.15,0,*58
1483509848.71,50424,9.19,71694.0,-9.89,-11.29,-11.29,0,*5F
1483509849.94,50425,9.19,71692.3,-9.89,-11.41,-11.33,0,*5B
1483509851.19,50426,9.19,71698.3,-9.87,-11.41,-11.37,0,*52
1483509852.43,50427,9.19,71686.8,-9.89,-11.33,-11.19,0,*54
1483509853.66,50428,9.19,71668.8,-9.89,-11.29,-11.15,0,*5C
1483509854.92,50429,9.19,71640.5,-9.89,-11.33,-11.29,0,*59
1483509856.15,50430,9.25,71626.0,-9.89,-11.19,-11.07,0,*55
1483509857.39,50431,9.19,71628.8,-9.89,-11.07,-10.93,0,*57
1483509858.6,50432,9.25,71660.8,-9.89,-11.01,-11.01,0,*58
1483509859.84,50433,9.19,71674.5,-9.91,-11.01,-11.01,0,*50
1483509861.04,50434,9.19,71682.3,-9.89,-11.15,-11.01,0,*5B
1483509862.25,50435,9.19,71666.8,-9.89,-10.93,-10.93,0,*5F
1483509863.47,50436,9.19,71646.0,-9.89,-11.01,-10.93,0,*56
1483509864.67,50437,9.19,71626.5,-9.89,-10.93,-10.93,0,*5D
1483509865.92,50438,9.19,71626.8,-9.89,-11.01,-11.07,0,*54
1483509867.15,50439,9.19,71620.5,-9.89,-11.07,-11.15,0,*50
1483509868.38,50440,9.19,71636.8,-9.89,-11.15,-11.07,0,*5E
1483509869.62,50441,9.25,71650.0,-9.89,-11.29,-11.19,0,*5F
1483509870.85,50442,9.25,71650.3,-9.89,-11.29,-11.15,0,*50
1483509872.09,50443,9.19,71658.8,-9.89,-11.19,-11.07,0,*51
1483509873.29,50444,9.19,71658.0,-9.89,-11.15,-11.01,0,*5C
1483509874.53,50445,9.19,71666.0,-9.89,-11.07,-11.01,0,*5E
1483509875.74,50446,9.19,71666.3,-9.89,-10.93,-10.93,0,*5B
1483509876.95,50447,9.19,71664.8,-9.89,-10.93,-10.89,0,*51
1483509878.16,50448,9.19,71668.3,-9.89,-11.01,-10.89,0,*54
1483509879.36,50449,9.19,71660.0,-9.89,-10.89,-10.89,0,*54
1483509880.6,50450,9.19,71642.8,-9.91,-11.01,-10.89,0,*54
1483509881.81,50451,9.25,71648.5,-9.89,-10.93,-11.01,0,*57
1483509883.05,50452,9.25,71640.0,-9.89,-11.07,-10.93,0,*52
1483509884.26,50453,9.25,71650.0,-9.89,-11.01,-10.93,0,*55
1483509885.47,50454,9.19,71668.0,-9.89,-11.01,-11.01,0,*58
1483509886.71,50455,9.19,71648.3,-9.89,-10.93,-10.79,0,*5D
1483509887.92,50456,9.19,71662.3,-9.89,-11.01,-11.01,0,*5A
1483509889.16,50457,9.19,71674.8,-9.89,-11.07,-10.93,0,*57
1483509890.39,50458,9.25,71688.3,-9.89,-10.93,-10.79,0,*50
1483509891.6,50459,9.25,71684.5,-9.89,-10.89,-10.89,0,*55
1483509892.81,50460,9.19,71700.3,-9.89,-11.01,-11.01,0,*5F
1483509894.01,50461,9.19,71674.8,-9.89,-11.19,-11.15,0,*52
1483509895.22,50462,9.25,71664.3,-9.89,-11.15,-11.19,0,*51
1483509896.42,50463,9.19,71644.0,-9.89,-11.19,-11.15,0,*50
1483509897.66,50464,9.19,71642.0,-9.91,-10.93,-10.93,0,*52
1483509898.86,50465,9.25,71646.5,-9.89,-10.93,-10.89,0,*51
1483509900.1,50466,9.25,71664.8,-9.91,-11.15,-11.01,0,*55
1483509901.31,50467,9.25,71660.8,-9.89,-11.01,-10.93,0,*52
1483509902.57,50468,9.19,71672.3,-9.91,-11.15,-11.07,0,*5D
1483509903.78,50469,9.25,71676.5,-9.89,-10.93,-10.89,0,*5D
1483509904.99,50470,9.19,71680.5,-9.89,-10.93,-11.01,0,*54
1483509906.22,50471,9.19,71672.3,-9.91,-10.93,-10.89,0,*5D
1483509907.43,50472,9.19,71658.8,-9.89,-10.93,-10.93,0,*5C
1483509908.64,50473,9.25,71674.5,-9.89,-10.93,-10.89,0,*56
1483509909.9,50474,9.19,71674.5,-9.89,-10.79,-10.79,0,*5A
1483509911.11,50475,9.19,71678.3,-9.89,-10.89,-10.89,0,*5B
1483509912.32,50476,9.19,71680.3,-9.89,-11.01,-10.89,0,*59
1483509913.53,50477,9.25,71694.8,-9.89,-11.01,-11.01,0,*59
1483509914.79,50478,9.19,71676.0,-9.89,-11.07,-11.07,0,*56
1483509916.03,50479,9.19,71686.8,-9.89,-11.15,-11.07,0,*54
1483509917.29,50480,9.19,71690.8,-9.91,-11.29,-11.15,0,*57
1483509918.53,50481,9.19,71680.0,-9.89,-11.29,-11.19,0,*53
1483509919.73,50482,9.19,71672.0,-9.89,-11.15,-11.15,0,*53
1483509920.96,50483,9.19,71660.8,-9.91,-11.19,-11.19,0,*5B
1483509922.17,50484,9.25,71668.0,-9.89,-11.01,-10.93,0,*5F
1483509923.38,50485,9.19,71674.5,-9.89,-10.93,-10.93,0,*54
1483509924.59,50486,9.19,71674.8,-9.89,-10.93,-11.01,0,*5D
1483509925.83,50487,9.19,71628.0,-9.91,-10.93,-11.01,0,*55
1483509927.06,50488,9.19,71628.5,-9.91,-10.93,-10.93,0,*50
1483509928.27,50489,9.25,71658.5,-9.89,-10.93,-10.93,0,*58
1483509929.5,50490,9.19,71684.8,-9.91,-11.15,-11.15,0,*59
1483509930.78,50491,9.19,71678.0,-9.91,-11.33,-11.33,0,*58
1483509932.01,50492,9.19,71648.0,-9.89,-11.19,-11.29,0,*51
1483509933.24,50493,9.19,71656.5,-9.91,-11.15,-11.15,0,*5A
1483509934.53,50494,9.25,71664.0,-9.91,-11.07,-11.07,0,*5D
1483509935.77,50495,9.25,71668.8,-9.89,-11.15,-11.07,0,*56
1483509937.0,50496,9.25,71690.0,-9.91,-11.01,-11.01,0,*5F
1483509938.24,50497,9.19,71666.5,-9.91,-11.01,-11.01,0,*5E
1483509939.47,50498,9.25,71662.8,-9.91,-11.19,-11.15,0,*5D
1483509940.73,50499,9.19,71666.3,-9.91,-11.07,-10.93,0,*5C
1483509941.99,50500,9.19,71678.0,-9.91,-10.93,-10.79,0,*55
1483509943.2,50501,9.25,71686.0,-9.89,-10.93,-10.89,0,*52
1483509944.43,50502,9.19,71684.3,-9.91,-10.89,-10.89,0,*53
1483509945.65,50503,9.19,71678.0,-9.89,-11.01,-10.93,0,*51
1483509946.86,50504,9.19,71676.5,-9.89,-11.01,-10.93,0,*56
1483509948.15,50505,9.19,71674.0,-9.91,-11.07,-11.07,0,*54
1483509949.39,50506,9.19,71676.3,-9.91,-11.01,-10.93,0,*5D
1483509950.65,50507,9.19,71686.3,-9.91,-10.93,-10.79,0,*52
1483509951.86,50508,9.19,71692.3,-9.89,-10.93,-10.93,0,*50
1483509953.07,50509,9.25,71700.0,-9.89,-10.93,-10.93,0,*51
1483509954.28,50510,9.25,71704.5,-9.89,-11.01,-10.93,0,*53
1483509955.52,50511,9.25,71710.8,-9.89,-11.07,-10.93,0,*54
1483509956.75,50512,9.25,71716.0,-9.89,-11.07,-11.01,0,*5D
1483509957.96,50513,9.25,71708.5,-9.89,-11.15,-10.93,0,*55
1483509959.2,50514,9.19,71708.5,-9.91,-11.01,-10.89,0,*55
1483509960.48,50515,9.25,71674.8,-9.91,-10.75,-10.75,0,*55
1483509961.77,50516,9.19,71666.5,-9.91,-10.75,-10.75,0,*56
1483509963.05,50517,9.25,71644.8,-9.91,-10.75,-10.79,0,*5B
1483509964.34,50518,9.19,71642.3,-9.91,-10.75,-10.75,0,*58
1483509965.62,50519,9.25,71642.5,-9.91,-10.75,-10.71,0,*5D
1483509966.91,50520,9.25,71644.0,-9.91,-10.79,-10.75,0,*5F
1483509968.2,50521,9.19,71628.3,-9.91,-10.71,-10.75,0,*56
1483509969.46,50522,9.25,71628.8,-9.89,-10.71,-10.71,0,*58
1483509970.72,50523,9.25,71638.8,-9.89,-10.71,-10.71,0,*59
1483509972.0,50524,9.25,71686.8,-9.91,-10.75,-10.71,0,*53
1483509973.26,50525,9.25,71688.5,-9.89,-10.75,-10.75,0,*5F
1483509974.52,50526,9.19,71666.0,-9.89,-10.79,-10.79,0,*5C
1483509975.75,50527,9.25,71644.0,-9.91,-10.89,-11.01,0,*55
1483509976.99,50528,9.25,71620.0,-9.89,-11.01,-11.07,0,*54
1483509978.23,50529,9.25,71632.0,-9.89,-11.01,-11.07,0,*55
1483509979.43,50530,9.19,71626.8,-9.89,-10.89,-10.89,0,*5B
1483509980.64,50531,9.25,71648.0,-9.89,-10.89,-10.89,0,*5A
1483509981.87,50532,9.25,71650.3,-9.89,-10.79,-10.89,0,*56
1483509983.13,50533,9.19,71646.3,-9.89,-10.79,-10.79,0,*58
1483509984.34,50534,9.25,71642.5,-9.89,-10.89,-10.89,0,*5F
1483509985.55,50535,9.19,71640.0,-9.89,-10.93,-10.93,0,*5E
1483509986.76,50536,9.25,71648.3,-9.89,-11.01,-11.01,0,*5D
1483509987.97,50537,9.19,71656.8,-9.89,-10.93,-10.93,0,*5C
1483509989.2,50538,9.25,71656.8,-9.87,-10.89,-10.89,0,*5D
1483509990.41,50539,9.19,71662.8,-9.89,-10.93,-10.89,0,*59
1483509991.62,50540,9.25,71684.8,-9.89,-10.93,-11.01,0,*56
1483509992.83,50541,9.25,71664.0,-9.89,-11.01,-11.01,0,*5D
1483509994.04,50542,9.25,71678.8,-9.89,-11.01,-11.01,0,*5E
1483509995.25,50543,9.19,71670.8,-9.89,-11.15,-11.15,0,*5F
1483509996.5,50544,9.19,71664.0,-9.91,-11.19,-11.07,0,*5E
1483509997.74,50545,9.25,71660.5,-9.89,-11.07,-11.01,0,*5F
1483509998.97,50546,9.25,71656.5,-9.89,-11.07,-11.01,0,*5C
1483510000.21,50547,9.19,71670.3,-9.89,-10.93,-10.79,0,*5F
1483510001.45,50548,9.25,71666.3,-9.89,-10.93,-10.79,0,*50
1483510002.68,50549,9.19,71666.8,-9.91,-10.93,-10.89,0,*57
1483510003.92,50550,9.25,71660.5,-9.89,-10.89,-10.79,0,*52
1483510005.12,50551,9.19,71658.3,-9.89,-10.93,-10.93,0,*5C
1483510006.33,50552,9.25,71666.8,-9.89,-10.89,-10.93,0,*54
1483510007.54,50553,9.25,71668.8,-9.89,-10.89,-10.93,0,*55
1483510008.74,50554,9.19,71668.3,-9.89,-10.89,-10.93,0,*52
1483510009.98,50555,9.25,71676.5,-9.89,-10.89,-10.79,0,*57
1483510011.19,50556,9.19,71680.0,-9.89,-10.93,-10.93,0,*5B
1483510012.4,50557,9.25,71680.3,-9.89,-10.93,-10.89,0,*51
1483510013.61,50558,9.25,71678.5,-9.89,-11.01,-10.89,0,*54
1483510014.87,50559,9.25,71676.8,-9.91,-10.89,-10.79,0,*52
1483510016.1,50560,9.19,71682.0,-9.91,-11.01,-11.01,0,*57
1483510017.31,50561,9.19,71686.8,-9.89,-10.93,-10.93,0,*5F
1483510018.55,50562,9.25,71688.3,-9.91,-10.93,-10.93,0,*55
1483510019.76,50563,9.25,71694.0,-9.89,-11.01,-11.01,0,*5D
1483510021.0,50564,9.25,71684.8,-9.89,-11.15,-11.07,0,*59
1483510022.21,50565,9.19,71674.5,-9.89,-11.01,-10.93,0,*51
1483510023.42,50566,9.19,71678.5,-9.89,-11.01,-10.89,0,*59
1483510024.63,50567,9.25,71678.8,-9.89,-10.93,-10.89,0,*52
1483510025.85,50568,9.19,71676.5,-9.87,-10.89,-10.85,0,*54
1483510027.06,50569,9.19,71680.3,-9.89,-11.01,-11.01,0,*57
1483510028.3,50570,9.25,71670.8,-9.87,-11.01,-10.97,0,*5F
1483510029.53,50571,9.19,71666.0,-9.87,-11.15,-11.01,0,*55
1483510030.77,50572,9.25,71678.8,-9.89,-11.07,-10.93,0,*51
1483510032.0,50573,9.25,71694.3,-9.89,-10.89,-10.79,0,*53
1483510033.24,50574,9.25,71698.8,-9.89,-11.07,-11.01,0,*5D
1483510034.45,50575,9.25,71706.5,-9.89,-10.93,-11.01,0,*50
1483510035.66,50576,9.25,71706.0,-9.89,-11.01,-11.01,0,*59
1483510036.89,50577,9.19,71688.5,-9.91,-11.15,-11.15,0,*51
1483510038.1,50578,9.19,71674.0,-9.89,-11.15,-11.01,0,*52
1483510039.33,50579,9.25,71670.5,-9.91,-10.93,-10.93,0,*5F
1483510040.54,50580,9.25,71686.5,-9.89,-10.89,-10.89,0,*50
1483510041.75,50581,9.19,71686.0,-9.89,-11.01,-10.89,0,*50
1483510042.98,50582,9.25,71694.0,-9.89,-10.79,-10.89,0,*5D
1483510044.22,50583,9.19,71698.5,-9.89,-10.93,-10.79,0,*57
1483510045.43,50584,9.25,71706.3,-9.89,-10.93,-10.89,0,*5F
1483510046.69,50585,9.25,71704.5,-9.89,-10.79,-10.79,0,*55
1483510047.95,50586,9.25,71714.8,-9.89,-10.79,-10.79,0,*56
1483510049.16,50587,9.25,71714.8,-9.89,-11.01,-10.93,0,*5D
1483510050.39,50588,9.25,71698.3,-9.91,-11.15,-11.15,0,*51
1483510051.63,50589,9.25,71696.5,-9.89,-11.07,-11.01,0,*5F
1483510052.84,50590,9.25,71692.3,-9.89,-10.93,-10.89,0,*5A
1483510054.07,50591,9.25,71700.3,-9.91,-10.89,-10.89,0,*59
1483510055.35,50592,9.25,71712.3,-9.91,-10.79,-10.79,0,*5A
1483510056.59,50593,9.25,71710.0,-9.91,-11.01,-10.89,0,*5A
1483510057.82,50594,9.19,71702.0,-9.89,-11.07,-11.01,0,*53
1483510059.06,50595,9.25,71694.5,-9.91,-11.01,-11.01,0,*5D
1483510060.27,50596,9.25,71704.5,-9.89,-11.01,-11.01,0,*57
1483510061.51,50597,9.25,71698.5,-9.91,-10.89,-10.89,0,*5F
1483510062.77,50598,9.19,71692.3,-9.89,-10.79,-10.79,0,*59
1483510064.0,50599,9.25,71692.0,-9.89,-10.93,-10.79,0,*5C
1483510065.23,50600,9.19,71684.5,-9.89,-10.89,-10.79,0,*54
1483510066.52,50601,9.25,71666.8,-9.91,-10.79,-10.79,0,*53
1483510067.73,50602,9.25,71666.5,-9.89,-10.93,-10.93,0,*59
1483510069.01,50603,9.25,71676.8,-9.91,-10.79,-10.79,0,*51
1483510070.27,50604,9.25,71678.5,-9.91,-10.89,-10.79,0,*59
1483510071.48,50605,9.25,71690.0,-9.89,-10.89,-10.89,0,*5E
1483510072.71,50606,9.19,71698.5,-9.89,-10.89,-10.79,0,*52
1483510073.97,50607,9.25,71700.3,-9.89,-10.79,-10.79,0,*5C
1483510075.25,50608,9.25,71700.8,-9.91,-10.79,-10.79,0,*5A
1483510076.49,50609,9.19,71704.0,-9.91,-11.01,-10.89,0,*5A
1483510077.72,50610,9.25,71716.8,-9.89,-10.89,-10.79,0,*55
1483510078.96,50611,9.25,71728.0,-9.91,-10.89,-10.89,0,*52
1483510080.17,50612,9.19,71712.3,-9.89,-10.93,-10.93,0,*58
1483510081.4,50613,9.25,71726.3,-9.89,-11.07,-11.01,0,*5F
1483510082.61,50614,9.25,71724.8,-9.89,-11.01,-10.93,0,*54
1483510083.85,50615,9.25,71726.3,-9.91,-10.93,-10.89,0,*5D
1483510085.08,50616,9.25,71724.8,-9.91,-10.93,-10.89,0,*5E
1483510086.3,50617,9.25,71718.0,-9.89,-11.01,-10.93,0,*57
1483510087.51,50618,9.19,71714.5,-9.89,-10.93,-10.93,0,*52
1483510088.74,50619,9.25,71708.0,-9.91,-10.89,-10.89,0,*5A
1483510089.95,50620,9.25,71698.0,-9.89,-11.01,-10.93,0,*53
1483510091.19,50621,9.19,71706.8,-9.91,-11.01,-10.93,0,*5B
1483510092.42,50622,9.25,71672.8,-9.91,-11.01,-11.15,0,*57
1483510093.66,50623,9.25,71664.3,-9.89,-11.15,-11.07,0,*59
1483510094.86,50624,9.25,71676.3,-9.89,-11.19,-11.19,0,*5D
1483510096.12,50625,9.25,71684.3,-9.91,-11.19,-11.29,0,*56
1483510097.32,50626,9.25,71696.8,-9.89,-11.19,-11.19,0,*5F
1483510098.52,50627,9.25,71688.3,-9.89,-11.15,-11.15,0,*5E
1483510099.75,50628,9.25,71694.3,-9.91,-11.15,-11.19,0,*54
1483510100.99,50629,9.25,71690.3,-9.89,-11.15,-11.07,0,*53
1483510102.22,50630,9.25,71686.5,-9.91,-11.15,-11.15,0,*51